This is the latest recevied weather packets stored in our database for station/object CE4JVU-10. If no packets are shown the sender has not sent any weather packets the latest 10 day(s).
| Time | Temp. | Humidity | Pressure | Rain* | Wind** | Luminosity | Snow |
|---|---|---|---|---|---|---|---|
| 1777649106 | 18.33° C | 58% | 986.2 hPa | - | - | - | - |
| 1777647306 | 18.89° C | 58% | 986.1 hPa | - | - | - | - |
| 1777645506 | 18.33° C | 58% | 985.8 hPa | - | - | - | - |
| 1777643705 | 18.33° C | 59% | 985.6 hPa | - | - | - | - |
| 1777641905 | 18.33° C | 59% | 985.7 hPa | - | - | - | - |
| 1777640105 | 18.33° C | 57% | 985.5 hPa | - | - | - | - |
| 1777638305 | 17.78° C | 58% | 985 hPa | - | - | - | - |
| 1777636505 | 17.78° C | 58% | 984.8 hPa | - | - | - | - |
| 1777634704 | 17.78° C | 58% | 984.6 hPa | - | - | - | - |
| 1777632904 | 17.78° C | 58% | 984.4 hPa | - | - | - | - |
| 1777631104 | 18.33° C | 57% | 984.2 hPa | - | - | - | - |
| 1777629304 | 17.78° C | 58% | 983.8 hPa | - | - | - | - |
| 1777627504 | 18.33° C | 57% | 983.5 hPa | - | - | - | - |
| 1777625704 | 18.33° C | 58% | 983.3 hPa | - | - | - | - |
| 1777623904 | 18.33° C | 58% | 983 hPa | - | - | - | - |
| 1777620304 | 18.89° C | 57% | 982.8 hPa | - | - | - | - |
| 1777618504 | 18.89° C | 56% | 982.8 hPa | - | - | - | - |
| 1777616703 | 18.89° C | 57% | 982.7 hPa | - | - | - | - |
| 1777614903 | 18.89° C | 57% | 982.6 hPa | - | - | - | - |
| 1777613103 | 18.33° C | 58% | 982.1 hPa | - | - | - | - |
| 1777611303 | 18.33° C | 57% | 982.2 hPa | - | - | - | - |
| 1777609504 | 18.89° C | 57% | 982 hPa | - | - | - | - |
| 1777607704 | 18.89° C | 57% | 982 hPa | - | - | - | - |
| 1777605904 | 19.44° C | 56% | 981.9 hPa | - | - | - | - |
| 1777604104 | 19.44° C | 57% | 981.8 hPa | - | - | - | - |
* Rain since midnight (hover to see other rain measurements)
** Current wind speed in m/s (hover to see current wind gust speed)